CW5757 Weather Reports


Display with metric or nautical units.
time (UTC)temp
F
wind
direction
speed
MPH
gust
MPH
rain 1hr
in
rain 24hr
in
rain mn
in
humidity
%
barometer
mb
20260506171011 80 41 0.0 1.0 0.00 0.00 0.00 55 1014.3
20260506170514 79 41 0.0 0.0 0.00 0.00 0.00 56 1013.8
20260506170021 78 41 0.0 0.0 0.00 0.00 0.00 57 1014.2
20260506165528 77 41 0.0 0.0 0.00 0.00 0.00 59 1014.7
20260506165035 77 41 0.0 0.0 0.00 0.00 0.00 57 1014.9
20260506164511 77 41 0.0 0.0 0.00 0.00 0.00 58 1015.0
20260506164011 77 41 0.0 0.0 0.00 0.00 0.00 58 1015.1
20260506163511 77 41 0.0 0.0 0.00 0.00 0.00 59 1015.2
20260506163011 77 41 0.0 0.0 0.00 0.00 0.00 57 1015.5
20260506162516 76 41 0.0 0.0 0.00 0.00 0.00 59 1015.4
20260506162023 76 41 0.0 0.0 0.00 0.00 0.00 62 1015.4
20260506161511 76 41 0.0 0.0 0.00 0.00 0.00 63 1015.5
20260506161011 75 41 0.0 0.0 0.00 0.00 0.00 64 1015.5
20260506160511 75 41 0.0 0.0 0.00 0.00 0.00 65 1015.6
20260506160011 74 41 0.0 0.0 0.00 0.00 0.00 65 1015.4
20260506155511 74 41 0.0 0.0 0.00 0.00 0.00 65 1015.3
20260506155011 73 41 0.0 0.0 0.00 0.00 0.00 65 1015.5
20260506154516 73 41 0.0 0.0 0.00 0.00 0.00 67 1015.2
20260506154022 73 41 0.0 0.0 0.00 0.00 0.00 68 1015.2
20260506153511 72 41 0.0 0.0 0.00 0.00 0.00 69 1015.3
20260506153011 72 41 0.0 0.0 0.00 0.00 0.00 69 1015.1
20260506152511 71 41 0.0 0.0 0.00 0.00 0.00 69 1015.1
20260506152011 71 41 0.0 0.0 0.00 0.00 0.00 69 1015.2
20260506151511 71 41 0.0 0.0 0.00 0.00 0.00 69 1015.2
20260506151011 70 41 0.0 0.0 0.00 0.00 0.00 69 1015.4
20260506150511 70 41 0.0 1.0 0.00 0.00 0.00 69 1015.4
20260506150011 70 41 0.0 1.0 0.00 0.00 0.00 70 1015.3
20260506145516 70 41 0.0 1.0 0.00 0.00 0.00 70 1015.2
20260506145023 69 41 0.0 1.0 0.00 0.00 0.00 71 1015.0
20260506144511 69 41 0.0 0.0 0.00 0.00 0.00 73 1014.9
20260506144011 69 41 0.0 0.0 0.00 0.00 0.00 73 1015.0
20260506143511 68 41 0.0 0.0 0.00 0.00 0.00 73 1015.0
20260506143015 68 41 0.0 0.0 0.00 0.00 0.00 73 1014.8
20260506142523 67 41 0.0 0.0 0.00 0.00 0.00 74 1014.7
20260506142011 67 41 0.0 0.0 0.00 0.00 0.00 74 1014.5
20260506141511 67 41 0.0 0.0 0.00 0.00 0.00 75 1014.6
20260506141011 66 41 0.0 0.0 0.00 0.00 0.00 74 1014.7
20260506140511 66 41 0.0 0.0 0.00 0.00 0.00 74 1014.7
20260506140011 66 41 0.0 0.0 0.00 0.00 0.00 74 1014.7
20260506135511 66 41 0.0 0.0 0.00 0.00 0.00 74 1014.5
20260506135011 66 41 0.0 0.0 0.00 0.00 0.00 74 1014.7
20260506134511 65 41 0.0 0.0 0.00 0.00 0.00 75 1014.7
20260506134011 65 41 0.0 0.0 0.00 0.00 0.00 75 1014.6
20260506133516 65 41 0.0 0.0 0.00 0.00 0.00 75 1014.8
20260506133023 65 41 0.0 0.0 0.00 0.00 0.00 75 1014.7
20260506132511 65 41 0.0 0.0 0.00 0.00 0.00 75 1014.5
20260506132011 64 41 0.0 0.0 0.00 0.00 0.00 76 1014.7
20260506131510 64 41 0.0 0.0 0.00 0.00 0.00 76 1014.7
20260506131016 64 41 0.0 0.0 0.00 0.00 0.00 76 1014.7
20260506130523 64 41 0.0 0.0 0.00 0.00 0.00 76 1014.9
20260506130011 64 41 0.0 0.0 0.00 0.00 0.00 76 1014.9
20260506125511 64 41 0.0 0.0 0.00 0.00 0.00 76 1014.8
20260506125011 64 41 0.0 0.0 0.00 0.00 0.00 76 1014.9
20260506124511 63 41 0.0 0.0 0.00 0.00 0.00 76 1014.9
20260506124011 63 41 0.0 0.0 0.00 0.00 0.00 76 1015.0
20260506123511 63 41 0.0 0.0 0.00 0.00 0.00 76 1014.8
20260506123011 63 41 0.0 0.0 0.00 0.00 0.00 76 1014.7
20260506122511 63 41 0.0 0.0 0.00 0.00 0.00 75 1014.6
20260506122014 63 41 0.0 0.0 0.00 0.00 0.00 75 1014.7
20260506121521 63 41 0.0 0.0 0.00 0.00 0.00 75 1014.7
20260506121028 63 41 0.0 0.0 0.00 0.00 0.00 74 1014.5
20260506120535 63 41 0.0 0.0 0.00 0.00 0.00 74 1014.5
20260506120011 63 41 0.0 0.0 0.00 0.00 0.00 74 1014.4
20260506115511 62 41 0.0 0.0 0.00 0.00 0.00 74 1014.5
20260506115011 62 41 0.0 0.0 0.00 0.00 0.00 73 1014.5
20260506114109 62 41 0.0 0.0 0.00 0.00 0.00 73 1014.6
20260506113616 62 41 0.0 0.0 0.00 0.00 0.00 72 1014.5
20260506113122 62 41 0.0 0.0 0.00 0.00 0.00 72 1014.4
20260506112617 62 41 0.0 0.0 0.00 0.00 0.00 72 1014.4
20260506112112 62 41 0.0 0.0 0.00 0.00 0.00 72 1014.3
20260506111600 62 41 0.0 0.0 0.00 0.00 0.00 71 1014.3
20260506111100 62 41 0.0 0.0 0.00 0.00 0.00 71 1014.2
20260506110600 62 41 0.0 0.0 0.00 0.00 0.00 71 1014.0
20260506110100 62 41 0.0 0.0 0.00 0.00 0.00 71 1013.9
20260506105600 62 41 0.0 0.0 0.00 0.00 0.00 71 1013.9
20260506105100 62 41 0.0 0.0 0.00 0.00 0.00 71 1013.8
20260506104600 62 41 0.0 0.0 0.00 0.00 0.00 71 1013.8
20260506104100 62 41 0.0 0.0 0.00 0.00 0.00 70 1013.7
20260506103600 62 41 0.0 0.0 0.00 0.00 0.00 70 1013.5
20260506103100 62 41 0.0 0.0 0.00 0.00 0.00 70 1013.2
20260506102600 62 41 0.0 0.0 0.00 0.00 0.00 70 1013.1
20260506102100 63 41 0.0 0.0 0.00 0.00 0.00 69 1013.1
20260506101600 63 41 0.0 0.0 0.00 0.00 0.00 69 1013.2
20260506101100 63 41 0.0 0.0 0.00 0.00 0.00 69 1013.2
20260506100600 63 41 0.0 0.0 0.00 0.00 0.00 69 1013.1
20260506100100 63 41 0.0 0.0 0.00 0.00 0.00 68 1012.9
20260506095600 63 41 0.0 0.0 0.00 0.00 0.00 68 1013.0
20260506095100 63 41 0.0 0.0 0.00 0.00 0.00 68 1012.9
20260506094600 63 41 0.0 0.0 0.00 0.00 0.00 68 1013.0
20260506094100 63 41 0.0 1.0 0.00 0.00 0.00 68 1013.2
20260506093600 63 41 0.0 1.0 0.00 0.00 0.00 68 1013.1
20260506093100 63 41 0.0 0.0 0.00 0.00 0.00 68 1013.1
20260506092600 63 41 0.0 0.0 0.00 0.00 0.00 68 1013.0
20260506092105 63 41 0.0 0.0 0.00 0.00 0.00 69 1012.9
20260506091612 63 41 0.0 0.0 0.00 0.00 0.00 68 1013.1
20260506091119 63 41 0.0 0.0 0.00 0.00 0.00 68 1013.3
20260506090626 63 41 0.0 0.0 0.00 0.00 0.00 68 1013.2
20260506090121 63 41 0.0 0.0 0.00 0.00 0.00 68 1013.1
20260506085627 63 41 0.0 0.0 0.00 0.00 0.00 68 1013.2
20260506085122 63 41 0.0 0.0 0.00 0.00 0.00 67 1013.2
20260506084629 63 41 0.0 0.0 0.00 0.00 0.00 67 1013.3
20260506084136 63 41 0.0 0.0 0.00 0.00 0.00 67 1013.4
20260506083600 63 41 0.0 0.0 0.00 0.00 0.00 68 1013.3
20260506083100 63 41 0.0 0.0 0.00 0.00 0.00 68 1013.5
20260506082600 63 41 0.0 0.0 0.00 0.00 0.00 66 1013.7
20260506082100 63 41 0.0 0.0 0.00 0.00 0.00 67 1013.8
20260506081600 63 41 0.0 0.0 0.00 0.00 0.00 67 1013.8
20260506081100 63 41 0.0 0.0 0.00 0.00 0.00 67 1013.8
20260506080600 63 41 0.0 0.0 0.00 0.00 0.00 67 1013.7
20260506073213 63 41 0.0 0.0 0.00 0.00 0.00 66 1013.8
20260506072720 63 41 0.0 0.0 0.00 0.00 0.00 65 1013.8
20260506072227 63 41 0.0 0.0 0.00 0.00 0.00 65 1013.8
20260506071703 63 41 0.0 0.0 0.00 0.00 0.00 66 1013.8
20260506071203 63 41 0.0 0.0 0.00 0.00 0.00 65 1013.9
20260506070703 63 41 0.0 0.0 0.00 0.00 0.00 65 1013.9
20260506070203 63 41 0.0 0.0 0.00 0.00 0.00 65 1013.8
20260506062211 62 41 0.0 0.0 0.00 0.00 0.00 67 1013.9
20260506061718 62 41 0.0 0.0 0.00 0.00 0.00 67 1013.9
20260506061213 62 41 0.0 0.0 0.00 0.00 0.00 67 1013.8
20260506060719 62 41 0.0 0.0 0.00 0.00 0.00 67 1013.8
20260506060215 61 41 0.0 0.0 0.00 0.00 0.00 69 1013.8
20260506051208 62 41 0.0 0.0 0.00 0.00 0.00 68 1013.9
20260506050715 62 41 0.0 0.0 0.00 0.00 0.00 68 1013.9
20260506050203 62 41 0.0 0.0 0.00 0.00 0.00 68 1013.9
20260506044708 62 41 0.0 0.0 0.00 0.00 0.00 67 1014.1
20260506044215 62 41 0.0 0.0 0.00 0.00 0.00 67 1014.2
20260506043703 62 41 0.0 0.0 0.00 0.00 0.00 66 1014.1
20260506043203 62 41 0.0 0.0 0.00 0.00 0.00 64 1013.9
20260506042703 63 41 0.0 0.0 0.00 0.00 0.00 65 1013.9
20260506042203 63 41 0.0 0.0 0.00 0.00 0.00 65 1013.9
20260506041703 63 41 0.0 0.0 0.00 0.00 0.00 65 1013.9
20260506041203 63 41 0.0 0.0 0.00 0.00 0.00 65 1014.1
20260506040338 64 41 0.0 0.0 0.00 0.00 0.00 64 1014.0
20260506035845 64 41 0.0 0.0 0.00 0.00 0.00 63 1014.1
20260506035340 64 41 0.0 0.0 0.00 0.00 0.00 63 1014.2
20260506034847 64 41 0.0 0.0 0.00 0.00 0.00 63 1014.1
20260506034353 64 41 0.0 0.0 0.00 0.00 0.00 61 1014.2
20260506033836 65 41 0.0 0.0 0.00 0.00 0.00 61 1014.1
20260506033332 65 41 0.0 0.0 0.00 0.00 0.00 60 1014.0
20260506032826 65 41 0.0 0.0 0.00 0.00 0.00 60 1014.0
20260506032314 65 41 0.0 0.0 0.00 0.00 0.00 60 1013.9
20260506031814 66 41 0.0 0.0 0.00 0.00 0.00 59 1013.9
20260506031314 66 41 0.0 0.0 0.00 0.00 0.00 59 1013.9
20260506030814 66 41 0.0 0.0 0.00 0.00 0.00 58 1014.0
20260506030314 67 41 0.0 0.0 0.00 0.00 0.00 57 1014.1
20260506025814 67 41 0.0 0.0 0.00 0.00 0.00 57 1014.1
20260506025320 67 41 0.0 0.0 0.00 0.00 0.00 56 1014.1
20260506024826 67 41 0.0 0.0 0.00 0.00 0.00 55 1014.2
20260506024314 68 41 0.0 0.0 0.00 0.00 0.00 54 1014.1
20260506023814 68 41 0.0 0.0 0.00 0.00 0.00 54 1014.2
20260506023314 68 41 0.0 0.0 0.00 0.00 0.00 53 1014.2
20260506022814 69 41 0.0 0.0 0.00 0.00 0.00 52 1014.2
20260506022314 69 41 0.0 0.0 0.00 0.00 0.00 52 1014.1
20260506021819 69 41 0.0 0.0 0.00 0.00 0.00 51 1014.1
20260506021326 69 41 0.0 0.0 0.00 0.00 0.00 51 1014.1
20260506020814 70 41 0.0 0.0 0.00 0.00 0.00 49 1014.0
20260506020314 70 41 0.0 0.0 0.00 0.00 0.00 49 1013.8
20260506015814 70 41 0.0 0.0 0.00 0.00 0.00 48 1013.8
20260506015314 71 41 0.0 0.0 0.00 0.00 0.00 48 1013.8
20260506014814 71 41 0.0 0.0 0.00 0.00 0.00 48 1013.7
20260506014314 71 41 0.0 0.0 0.00 0.00 0.00 48 1013.6
20260506013814 72 41 0.0 0.0 0.00 0.00 0.00 46 1013.6
20260506013314 72 41 0.0 0.0 0.00 0.00 0.00 45 1013.6
20260506012814 72 41 0.0 0.0 0.00 0.00 0.00 45 1013.6
20260506012314 72 41 0.0 0.0 0.00 0.00 0.00 45 1013.5
20260506011817 72 41 0.0 0.0 0.00 0.00 0.00 45 1013.6
20260506011325 73 41 0.0 0.0 0.00 0.00 0.00 45 1013.6
20260506010831 73 41 0.0 0.0 0.00 0.00 0.00 45 1013.6
20260506010326 73 41 0.0 0.0 0.00 0.00 0.00 44 1013.6
20260506005814 73 41 0.0 0.0 0.00 0.00 0.00 44 1013.6
20260506005314 74 41 0.0 0.0 0.00 0.00 0.00 44 1013.6
20260506004814 74 41 0.0 0.0 0.00 0.00 0.00 43 1013.7
20260506004314 74 41 0.0 0.0 0.00 0.00 0.00 43 1013.5
20260506003814 74 41 0.0 0.0 0.00 0.00 0.00 43 1013.5
20260506003314 75 41 0.0 0.0 0.00 0.00 0.00 43 1013.5
20260506002814 75 41 0.0 0.0 0.00 0.00 0.00 41 1013.5
20260506002314 75 41 0.0 0.0 0.00 0.00 0.00 41 1013.5
20260506001701 75 41 0.0 0.0 0.00 0.00 0.00 41 1013.7
20260506001201 76 41 0.0 0.0 0.00 0.00 0.00 40 1013.6
20260506000701 76 41 0.0 0.0 0.00 0.00 0.00 40 1013.5
20260506000204 76 41 0.0 0.0 0.00 0.00 0.00 39 1013.5
20260505235701 76 41 0.0 0.0 0.00 0.00 0.00 39 1013.5
20260505235207 77 41 0.0 0.0 0.00 0.00 0.00 39 1013.4
20260505234713 77 41 0.0 0.0 0.00 0.00 0.00 38 1013.4
20260505234201 77 41 0.0 0.0 0.00 0.00 0.00 38 1013.3
20260505233706 77 41 0.0 0.0 0.00 0.00 0.00 38 1013.3
20260505233213 77 41 0.0 0.0 0.00 0.00 0.00 38 1013.4
20260505232701 77 41 0.0 0.0 0.00 0.00 0.00 37 1013.5
20260505232201 78 41 0.0 0.0 0.00 0.00 0.00 37 1013.3
20260505231701 78 41 0.0 0.0 0.00 0.00 0.00 37 1013.3
20260505231201 78 41 0.0 0.0 0.00 0.00 0.00 37 1013.2
20260505230701 78 41 0.0 0.0 0.00 0.00 0.00 37 1013.2
20260505230201 78 41 0.0 0.0 0.00 0.00 0.00 38 1013.1
20260505225701 78 41 0.0 0.0 0.00 0.00 0.00 37 1013.1
20260505225205 79 41 0.0 0.0 0.00 0.00 0.00 36 1013.2
20260505224712 79 41 0.0 0.0 0.00 0.00 0.00 36 1013.1
20260505224219 79 41 0.0 0.0 0.00 0.00 0.00 36 1013.1
20260505223726 79 41 0.0 0.0 0.00 0.00 0.00 36 1013.1
20260505223206 79 41 0.0 2.0 0.00 0.00 0.00 36 1013.3
20260505222713 79 41 0.0 2.0 0.00 0.00 0.00 36 1013.3
20260505222201 79 41 0.0 2.0 0.00 0.00 0.00 36 1013.4
20260505221701 80 41 0.0 1.0 0.00 0.00 0.00 36 1013.3
20260505221201 80 41 0.0 1.0 0.00 0.00 0.00 36 1013.1
20260505220701 80 41 0.0 2.0 0.00 0.00 0.00 34 1013.3
20260505220201 80 41 0.0 2.0 0.00 0.00 0.00 35 1013.0
20260505215701 80 41 0.0 1.0 0.00 0.00 0.00 34 1013.1
20260505215201 80 41 0.0 2.0 0.00 0.00 0.00 34 1013.2
20260505214701 81 41 0.0 2.0 0.00 0.00 0.00 34 1013.4
20260505214201 81 41 0.0 1.0 0.00 0.00 0.00 33 1013.4
20260505213701 81 41 0.0 0.0 0.00 0.00 0.00 33 1013.3
20260505213201 81 41 0.0 0.0 0.00 0.00 0.00 32 1013.3
20260505212701 82 41 0.0 1.0 0.00 0.00 0.00 31 1013.4
20260505212206 82 41 0.0 1.0 0.00 0.00 0.00 32 1013.4
20260505211714 82 41 0.0 0.0 0.00 0.00 0.00 32 1013.4
20260505211201 82 41 0.0 0.0 0.00 0.00 0.00 32 1013.5
20260505210706 83 41 0.0 0.0 0.00 0.00 0.00 31 1013.5
20260505210213 83 41 0.0 1.0 0.00 0.00 0.00 30 1013.4
20260505205706 83 41 0.0 2.0 0.00 0.00 0.00 30 1013.4
20260505205213 83 41 0.0 2.0 0.00 0.00 0.00 30 1013.5
20260505204701 83 41 0.0 0.0 0.00 0.00 0.00 29 1013.6
20260505204201 83 41 0.0 0.0 0.00 0.00 0.00 30 1013.6
20260505203706 83 41 0.0 0.0 0.00 0.00 0.00 29 1013.6
20260505203213 84 41 0.0 0.0 0.00 0.00 0.00 29 1013.7
20260505202720 84 41 0.0 1.0 0.00 0.00 0.00 29 1013.6
20260505202226 84 41 0.0 1.0 0.00 0.00 0.00 27 1013.6
20260505201733 85 41 0.0 0.0 0.00 0.00 0.00 28 1013.8
20260505201241 85 41 0.0 0.0 0.00 0.00 0.00 29 1013.7
20260505200748 85 41 0.0 1.0 0.00 0.00 0.00 27 1013.8
20260505200242 86 41 0.0 1.0 0.00 0.00 0.00 28 1013.9
20260505195737 86 41 0.0 0.0 0.00 0.00 0.00 28 1014.0
20260505195201 86 41 0.0 0.0 0.00 0.00 0.00 28 1014.0
20260505194701 87 41 0.0 0.0 0.00 0.00 0.00 27 1014.2
20260505194206 87 41 0.0 0.0 0.00 0.00 0.00 27 1014.3
20260505193713 88 41 0.0 1.0 0.00 0.00 0.00 27 1014.4
20260505193201 88 41 0.0 1.0 0.00 0.00 0.00 25 1014.5
20260505192701 89 41 0.0 1.0 0.00 0.00 0.00 26 1014.5
20260505192201 89 41 0.0 0.0 0.00 0.00 0.00 23 1014.4
20260505191706 89 41 0.0 0.0 0.00 0.00 0.00 26 1014.4
20260505191213 89 41 0.0 0.0 0.00 0.00 0.00 23 1014.7
20260505190701 89 41 0.0 0.0 0.00 0.00 0.00 23 1014.7
20260505190206 89 41 0.0 0.0 0.00 0.00 0.00 25 1014.8
20260505185713 88 41 0.0 0.0 0.00 0.00 0.00 24 1015.0
20260505185206 88 41 0.0 2.0 0.00 0.00 0.00 26 1015.2
20260505184713 88 41 0.0 2.0 0.00 0.00 0.00 27 1015.3
20260505184201 88 41 0.0 1.0 0.00 0.00 0.00 25 1015.2
20260505183706 88 41 0.0 1.0 0.00 0.00 0.00 26 1015.3
20260505183213 88 41 0.0 0.0 0.00 0.00 0.00 26 1015.3
20260505182706 88 41 0.0 1.0 0.00 0.00 0.00 27 1015.2
20260505182213 87 41 0.0 1.0 0.00 0.00 0.00 26 1015.2
20260505181701 87 41 0.0 0.0 0.00 0.00 0.00 27 1015.4
20260505181201 88 41 0.0 1.0 0.00 0.00 0.00 26 1015.4
20260505180701 88 41 0.0 3.0 0.00 0.00 0.00 25 1015.3
20260505180201 87 41 0.0 3.0 0.00 0.00 0.00 28 1015.5
20260505175701 87 41 0.0 1.0 0.00 0.00 0.00 26 1015.4
20260505175201 87 41 0.0 1.0 0.00 0.00 0.00 27 1015.6
20260505174705 87 41 0.0 0.0 0.00 0.00 0.00 28 1015.7
20260505174212 87 41 0.0 0.0 0.00 0.00 0.00 27 1015.7
20260505173718 87 41 0.0 0.0 0.00 0.00 0.00 27 1015.8
20260505173225 87 41 0.0 0.0 0.00 0.00 0.00 29 1016.0
20260505172701 86 41 0.0 0.0 0.00 0.00 0.00 28 1016.1
20260505172201 86 41 0.0 0.0 0.00 0.00 0.00 28 1015.9
20260505171701 85 41 0.0 0.0 0.00 0.00 0.00 31 1016.1